�������r�C�����j�^�v���󋵏��
Date,Time,5�C6���@���p�r�C��,����,����(m/s)
2022/02/07,00:00,4.1,-,CALM
2022/02/07,00:10,4.0,�쓌,0.6
2022/02/07,00:20,4.2,-,CALM
2022/02/07,00:30,4.3,��,1.5
2022/02/07,00:40,4.2,��,2.6
2022/02/07,00:50,4.3,���쐼,2.6
2022/02/07,01:00,4.1,��,2.3
2022/02/07,01:10,4.2,���k��,1.5
2022/02/07,01:20,4.2,��,1.4
2022/02/07,01:30,4.0,���쐼,0.8
2022/02/07,01:40,4.1,��쐼,2.3
2022/02/07,01:50,4.2,��쐼,2.8
2022/02/07,02:00,4.2,��쐼,3.2
2022/02/07,02:10,4.1,��쐼,2.3
2022/02/07,02:20,4.2,��,1.4
2022/02/07,02:30,4.3,��,2.0
2022/02/07,02:40,4.1,��쐼,3.0
2022/02/07,02:50,4.2,��쐼,3.0
2022/02/07,03:00,4.2,��쐼,1.5
2022/02/07,03:10,4.3,��쐼,1.4
2022/02/07,03:20,4.1,��쐼,1.2
2022/02/07,03:30,4.4,��쐼,1.4
2022/02/07,03:40,3.9,���쐼,1.4
2022/02/07,03:50,4.1,�쐼,0.6
2022/02/07,04:00,3.9,���쐼,0.6
2022/02/07,04:10,4.0,��쐼,2.8
2022/02/07,04:20,4.1,�쐼,3.3
2022/02/07,04:30,4.1,���쐼,3.0
2022/02/07,04:40,4.3,��,4.3
2022/02/07,04:50,4.2,��,3.7
2022/02/07,05:00,4.3,��,3.4
2022/02/07,05:10,4.2,��,2.5
2022/02/07,05:20,4.0,���쐼,2.6
2022/02/07,05:30,4.1,��,4.2
2022/02/07,05:40,4.2,���쐼,2.6
2022/02/07,05:50,4.0,���쐼,2.8
2022/02/07,06:00,4.1,���쐼,2.2
2022/02/07,06:10,4.0,��,2.0
2022/02/07,06:20,4.2,���쐼,2.0
2022/02/07,06:30,4.3,���쐼,2.3
2022/02/07,06:40,4.0,��,2.3
2022/02/07,06:50,4.1,���쐼,2.8
2022/02/07,07:00,4.2,���쐼,3.8
2022/02/07,07:10,4.1,���쐼,3.9
2022/02/07,07:20,4.2,��,4.1
2022/02/07,07:30,4.2,��,4.5
2022/02/07,07:40,4.1,���k��,4.2
2022/02/07,07:50,4.2,��,4.5
2022/02/07,08:00,4.2,��,4.4
2022/02/07,08:10,4.1,���쐼,2.9
2022/02/07,08:20,4.1,�쐼,2.6
2022/02/07,08:30,4.0,���쐼,1.5
2022/02/07,08:40,4.1,��,1.7
2022/02/07,08:50,4.1,���k��,2.0
2022/02/07,09:00,3.9,���k��,2.9
2022/02/07,09:10,4.1,��,3.3
2022/02/07,09:20,3.9,��,4.2
2022/02/07,09:30,4.2,��,3.6
2022/02/07,09:40,4.2,��,4.9
2022/02/07,09:50,4.1,���k��,4.7
2022/02/07,10:00,3.9,��,4.5
2022/02/07,10:10,4.2,���k��,2.8
2022/02/07,10:20,4.3,�k�k��,5.1
2022/02/07,10:30,4.1,�k�k��,4.1
2022/02/07,10:40,4.2,�k�k��,2.6
2022/02/07,10:50,4.2,�k��,3.6
2022/02/07,11:00,4.3,�k��,2.2
2022/02/07,11:10,4.2,���쓌,2.0
2022/02/07,11:20,4.3,�k�k��,2.2
2022/02/07,11:30,3.9,���쓌,2.2
2022/02/07,11:40,4.0,��,0.9
2022/02/07,11:50,4.3,��,0.8
2022/02/07,12:00,4.0,��,3.6
2022/02/07,12:10,4.0,���쓌,3.5
2022/02/07,12:20,4.0,�쓌,3.9
2022/02/07,12:30,4.1,���쓌,3.4
2022/02/07,12:40,3.9,�k,0.6
2022/02/07,12:50,4.1,��,5.6
2022/02/07,13:00,4.1,��,6.6
2022/02/07,13:10,4.0,��,5.8
2022/02/07,13:20,4.0,���k��,7.2
2022/02/07,13:30,4.2,��,7.3
2022/02/07,13:40,4.2,��,6.3
2022/02/07,13:50,4.0,��,7.3
2022/02/07,14:00,4.1,���k��,7.1
2022/02/07,14:10,4.2,�k��,5.5
2022/02/07,14:20,4.1,�k��,5.2
2022/02/07,14:30,4.1,��,6.4
2022/02/07,14:40,4.0,�k��,5.3
2022/02/07,14:50,4.1,�k��,6.1
2022/02/07,15:00,4.1,���k��,6.2
2022/02/07,15:10,4.0,��,4.1
2022/02/07,15:20,4.2,���k��,5.9
2022/02/07,15:30,4.2,�k��,4.8
2022/02/07,15:40,4.1,�k��,5.3
2022/02/07,15:50,4.2,�k��,3.5
2022/02/07,16:00,3.9,���k��,4.0
2022/02/07,16:10,3.9,���k��,3.3
2022/02/07,16:20,4.1,���쐼,4.0
2022/02/07,16:30,4.0,��,3.8
2022/02/07,16:40,4.1,���k��,2.9
2022/02/07,16:50,3.9,��,3.8
2022/02/07,17:00,4.3,���쐼,4.2
2022/02/07,17:10,4.0,���쐼,5.2
2022/02/07,17:20,4.1,���쐼,4.1
2022/02/07,17:30,3.9,���쐼,3.7
2022/02/07,17:40,4.2,���쐼,4.0
2022/02/07,17:50,4.1,��,4.1
2022/02/07,18:00,4.1,��,3.0
2022/02/07,18:10,4.1,��,3.1
2022/02/07,18:20,4.1,��,2.9
2022/02/07,18:30,4.2,�쐼,2.0
2022/02/07,18:40,4.3,���쐼,2.0
2022/02/07,18:50,4.2,��,3.9
2022/02/07,19:00,3.9,��,5.2
2022/02/07,19:10,4.1,���k��,4.4
2022/02/07,19:20,4.1,���k��,4.1
2022/02/07,19:30,4.1,���k��,4.3
2022/02/07,19:40,3.9,���k��,4.5
2022/02/07,19:50,3.9,���k��,4.7
2022/02/07,20:00,4.1,���k��,4.3
2022/02/07,20:10,4.1,���k��,4.2
2022/02/07,20:20,4.3,���k��,4.4
2022/02/07,20:30,4.1,���k��,5.1
2022/02/07,20:40,4.1,���k��,5.7
2022/02/07,20:50,4.0,���k��,7.6
2022/02/07,21:00,4.1,�k��,6.5
2022/02/07,21:10,4.2,�k��,4.5
2022/02/07,21:20,4.0,�k��,2.9
2022/02/07,21:30,4.2,���k��,2.3
2022/02/07,21:40,4.2,���k��,5.2
2022/02/07,21:50,4.1,���k��,5.5
2022/02/07,22:00,4.2,���k��,4.3
2022/02/07,22:10,4.1,�k��,3.0
2022/02/07,22:20,4.1,�k��,2.0
2022/02/07,22:30,4.1,���k��,2.3
2022/02/07,22:40,4.1,���k��,2.6
2022/02/07,22:50,4.2,��,2.8
2022/02/07,23:00,4.1,��,2.8
2022/02/07,23:10,4.0,��,2.6
2022/02/07,23:20,4.1,���k��,2.6
2022/02/07,23:30,4.1,���k��,3.4
2022/02/07,23:40,4.2,���k��,3.8
2022/02/07,23:50,4.3,�k��,3.5
